Temp
16 16 16 17 17 17 17 17 17 16 16 16 16 16 16 16 16 16 16 16 16 16 16 16 16 16 16 16 16 16 15 14
15 15 16 16 16 16 17 16 16 16 16 16 16 16 16 16 15 15 16 16 15 15 15 15 15 15 15 15 15 15 14 14
14 15 15 16 16 15 15 15 15 15 15 15 16 15 15 15 15 15 15 15 15 15 15 15 15 14 14 14 14 13 13 13
15 15 15 15 15 15 15 15 15 15 15 15 15 15 14 15 14 15 15 15 15 14 14 14 14 14 14 14 13 13 12 12
15 15 14 15 15 15 15 15 15 14 14 14 14 14 14 14 14 14 14 14 14 14 14 14 13 13 13 12 12 12 12 12
15 15 15 15 15 15 14 14 14 14 14 14 14 14 14 13 13 13 13 13 13 14 14 13 13 12 12 12 12 12 12 11
15 15 14 14 14 14 14 14 14 14 13 13 13 13 13 13 12 12 12 12 13 13 13 13 13 12 11 12 11 11 11 11
14 14 14 14 14 14 14 13 13 13 13 13 13 13 13 13 12 12 12 12 12 12 13 13 12 11 11 11 11 10 10 10
14 14 14 14 14 13 13 13 12 12 12 12 13 13 13 13 12 12 11 11 12 12 12 12 12 10 10 10 10 9 9 9
13 13 13 13 13 13 13 13 12 12 12 12 12 12 12 12 12 11 11 11 12 12 11 11 10 9 9 9 9 9 8 8
13 13 13 13 13 12 12 12 12 12 12 12 12 12 11 12 11 10 10 11 11 10 10 10 9 8 8 8 8 8 8 7
13 13 13 12 12 12 12 12 12 11 11 11 11 11 11 11 11 10 10 10 10 9 9 8 8 8 7 7 7 7 7 6
13 13 12 12 12 11 11 12 11 11 11 11 11 11 11 11 11 10 10 10 9 9 8 8 7 7 7 6 5 5 5 5
13 13 12 12 12 12 12 12 11 11 11 11 11 11 11 11 11 10 10 10 9 8 8 7 7 7 7 6 3 4 4 4
13 13 13 13 12 12 12 11 10 10 10 10 11 11 10 10 10 10 10 9 9 8 8 8 7 6 7 6 3 4 3 3
13 13 13 13 12 12 12 12 11 11 11 11 11 10 10 10 10 9 9 9 8 8 7 7 7 6 5 5 5 5 2 2
13 13 13 13 12 13 13 12 12 12 11 11 10 9 9 9 9 9 9 8 8 7 7 7 6 6 5 4 4 3 3 2
13 13 13 13 12 12 13 13 12 12 11 10 9 9 9 9 8 8 8 8 7 6 6 6 6 5 5 4 4 3 2 2
13 13 13 13 13 13 13 13 13 13 12 11 10 10 9 8 8 7 7 6 6 6 6 5 5 5 4 4 3 3 2 1
13 13 13 13 13 13 13 13 13 12 12 12 11 11 10 9 8 7 7 6 5 5 5 4 4 4 3 3 3 2 2 2
Height
856 858 858 860 863 864 864 865 865 865 865 866 866 866 864 865 864 865 863 862 862 861 861 862 862 861 861 861 861 861 861 863
857 859 860 861 863 865 865 868 869 869 868 869 869 867 867 867 867 867 864 863 865 864 863 864 864 863 863 864 863 864 864 865
860 861 863 865 865 866 868 868 870 871 871 871 870 870 870 869 870 868 866 866 866 866 866 867 867 867 867 867 866 867 868 869
862 864 865 866 867 868 869 871 871 873 874 873 874 872 871 871 871 870 869 868 868 868 869 870 870 870 870 870 871 872 872 873
863 865 867 868 869 871 872 872 872 874 875 876 875 873 873 872 872 872 871 872 871 871 872 872 873 873 873 874 875 875 876 877
864 866 867 868 870 871 872 875 875 876 879 880 878 875 874 873 873 872 872 872 873 873 873 874 875 876 877 878 878 878 879 880
863 866 868 868 870 872 873 876 878 875 876 879 880 878 876 876 875 873 874 874 874 875 876 876 876 877 879 880 880 881 882 882
863 866 868 870 871 873 875 878 880 878 877 875 878 878 877 876 876 875 875 875 876 878 877 878 879 880 881 883 884 885 885 885
862 864 868 870 872 875 877 879 882 882 880 878 876 877 877 877 877 877 876 877 877 878 878 879 880 881 882 885 886 887 887 887
862 864 867 870 873 875 876 879 882 883 882 880 879 878 879 879 878 878 879 878 878 877 879 879 881 883 885 887 888 889 890 889
861 863 867 870 873 875 877 879 881 883 883 883 881 878 879 879 878 879 881 881 880 880 881 881 884 887 890 892 893 894 894 894
860 864 867 870 874 875 876 879 879 883 883 882 883 881 880 881 881 881 882 883 883 883 884 887 887 889 892 895 897 898 898 897
859 861 866 869 871 873 875 875 879 881 883 883 883 882 881 882 883 884 884 884 885 886 886 890 893 894 894 898 900 900 900 900
856 860 864 868 871 873 873 876 879 879 881 882 882 883 883 884 885 885 885 885 887 888 888 890 892 894 895 897 901 903 903 902
854 858 861 866 870 872 874 875 877 880 880 882 881 882 883 884 885 886 886 886 887 888 889 890 891 894 894 895 899 899 901 903
851 854 857 862 866 869 870 870 871 875 880 881 882 882 883 882 884 886 887 887 888 888 889 890 891 892 894 894 895 895 897 901
846 850 854 859 861 865 868 870 872 874 876 881 881 881 883 883 884 886 887 887 888 889 889 889 891 892 893 895 896 898 898 897
840 845 849 853 858 861 864 867 868 871 873 877 880 880 881 883 884 885 885 887 889 889 889 891 892 892 893 893 894 895 897 898
835 840 843 848 852 856 859 862 864 866 869 871 875 877 879 881 883 884 885 887 889 890 889 889 891 892 893 893 893 894 896 897
827 833 838 841 845 848 853 857 860 862 865 867 870 872 876 878 880 881 883 885 886 886 887 888 889 891 893 894 893 894 895 895
Wind_Speed
17 16 16 14 15 15 16 17 17 19 19 18 18 17 18 17 17 17 19 19 18 16 16 16 15 16 18 19 20 20 21 23
15 16 16 17 18 17 18 17 17 17 16 16 16 17 16 16 16 16 18 19 19 18 18 18 18 18 19 19 20 21 22 23
15 16 17 17 16 14 13 12 12 12 14 15 15 16 16 18 16 16 17 16 17 17 18 17 18 19 19 20 21 23 24 25
15 14 14 13 12 11 11 12 13 13 13 15 15 16 17 17 16 17 19 18 17 17 18 19 18 19 21 21 23 23 26 27
15 12 11 10 11 10 12 13 15 15 14 14 16 17 17 16 16 17 18 17 18 16 17 18 19 20 22 24 24 25 26 26
14 12 11 11 11 13 15 15 16 17 15 13 12 15 15 16 16 17 17 16 17 17 17 18 18 20 22 23 23 24 25 25
14 12 11 13 15 16 17 17 16 18 16 13 11 13 16 15 16 17 17 15 15 15 16 17 19 21 22 22 22 23 23 23
14 14 15 15 17 17 17 16 15 15 15 15 13 13 15 15 15 17 17 15 13 13 13 15 19 23 25 22 22 22 21 20
18 18 18 18 18 18 18 17 13 12 14 14 14 13 13 13 15 16 16 13 11 11 12 15 21 25 24 22 22 22 21 19
21 21 20 19 19 19 18 16 13 12 11 12 13 14 12 13 14 16 13 12 10 11 14 20 24 25 27 26 25 23 21 19
22 22 22 22 21 19 18 16 14 11 10 11 11 12 11 12 15 15 13 14 15 16 20 25 29 29 27 25 23 21 19 17
24 25 25 23 22 20 19 16 15 11 10 10 9 10 10 10 13 14 14 15 18 18 24 26 28 28 27 25 22 19 17 18
29 30 27 26 25 23 19 18 15 13 10 8 7 8 9 8 10 12 13 15 18 18 24 26 28 26 22 21 18 15 15 16
31 31 29 28 26 23 20 18 13 12 10 8 7 7 8 7 8 9 10 13 15 18 21 22 14 9 4 5 2 4 12 14
33 31 30 30 26 22 19 17 16 12 11 9 8 7 7 7 6 7 8 9 12 13 12 13 9 5 4 3 2 2 4 5
33 31 33 33 30 25 25 24 21 15 13 10 9 8 7 6 5 4 6 7 8 9 9 8 8 9 7 8 5 3 2 2
34 33 34 35 33 28 26 21 17 15 15 12 11 10 7 5 5 4 4 5 5 6 7 7 6 6 5 5 5 6 4 2
36 37 37 36 34 31 29 24 21 19 18 17 14 11 9 7 6 6 6 5 5 5 5 5 5 5 6 6 5 3 2 3
40 39 40 39 37 35 32 28 24 23 22 20 18 16 15 12 8 7 6 6 7 6 5 5 4 4 4 5 5 5 4 3
41 41 40 41 40 39 35 31 30 27 25 23 22 19 15 13 11 9 9 9 9 10 8 6 5 4 4 3 3 3 1 1
Wind_Direction
129 123 123 122 118 116 110 109 107 104 103 103 102 99 94 92 86 88 86 83 80 79 76 74 84 88 91 89 88 83 77 76
131 123 128 128 125 118 112 106 105 104 102 105 104 102 97 92 90 88 87 86 80 77 78 85 88 90 90 90 87 84 81 77
128 129 129 132 131 125 122 115 116 111 114 109 107 102 99 93 88 85 85 87 86 82 86 90 96 95 92 91 89 88 86 80
132 131 134 139 129 124 122 120 120 121 117 110 107 106 98 95 90 88 87 89 95 92 96 102 101 99 98 96 94 92 88 85
141 141 144 137 126 122 124 129 131 126 121 116 112 105 101 95 91 87 89 87 86 90 99 104 103 104 104 103 102 97 94 89
146 148 152 139 135 132 129 131 129 122 112 109 106 100 92 89 86 85 86 85 85 87 94 111 111 109 110 109 105 102 100 94
151 156 156 143 141 136 134 132 133 126 122 108 95 87 83 79 78 81 83 82 82 92 96 110 116 118 118 114 109 108 107 103
158 158 152 146 143 141 137 135 131 127 117 109 97 85 80 77 80 80 81 75 77 87 101 105 121 125 119 112 110 109 108 104
159 155 152 150 144 143 136 132 133 119 110 104 98 90 83 85 87 82 78 76 79 90 110 117 124 130 124 116 114 111 107 100
160 158 157 153 148 145 140 138 133 116 105 102 96 89 83 86 85 85 86 87 83 98 122 127 127 127 120 116 115 112 105 99
167 164 160 156 153 149 141 135 130 123 110 100 97 92 87 85 87 86 84 81 79 94 118 126 122 116 113 110 107 103 97 91
169 163 161 160 157 152 144 139 130 128 119 107 93 85 84 84 85 85 84 84 85 104 119 122 121 119 112 102 99 95 90 82
172 167 169 169 165 158 150 146 142 137 126 112 99 88 90 92 91 87 84 92 96 114 121 122 116 114 107 97 91 91 85 78
179 176 178 181 178 171 164 156 153 147 142 137 118 102 96 96 92 87 85 92 111 128 135 135 129 150 142 132 150 101 78 77
184 186 187 187 184 179 168 165 160 163 160 153 132 121 118 112 99 100 99 94 107 121 145 164 150 99 184 176 122 198 148 108
192 194 192 192 189 189 186 182 172 181 175 165 158 144 137 128 122 123 108 104 104 106 115 139 154 145 102 88 97 135 156 165
197 197 195 195 195 198 197 194 187 180 177 184 177 162 162 146 144 150 145 130 119 117 117 115 128 127 147 140 107 84 81 121
198 198 198 200 202 203 206 203 194 188 188 188 191 188 181 178 177 179 165 159 160 144 122 115 115 114 108 111 130 141 104 91
201 203 203 205 208 209 210 212 211 206 204 200 201 202 201 194 196 193 183 180 178 169 152 143 137 133 131 116 98 94 100 103
202 206 208 210 210 212 215 217 220 219 216 214 216 216 209 199 199 200 200 194 188 187 177 167 163 162 160 144 134 131 91 56